Wind_Speed
12 10 10 10 8 8 8 11 14 15 20 23 25 27 22 17 9 23 19 7 8 9 13 20 17 17 23 25 20 19 17 15 13 12 11 11 11 12 13 13 13 13 12
14 13 12 13 11 11 11 13 12 13 16 20 19 23 23 22 22 16 17 14 11 10 10 9 13 17 17 14 28 21 19 18 16 15 14 13 13 12 13 13 14 13 13
17 16 15 15 14 13 14 14 12 10 12 14 12 15 18 19 18 16 15 17 16 16 18 17 16 16 10 8 6 16 20 18 18 18 16 15 14 13 13 14 15 15 14
19 19 18 18 16 16 16 16 13 9 5 10 10 13 15 17 19 21 19 19 17 14 13 13 10 9 6 6 8 12 16 22 18 20 18 18 17 16 15 15 15 16 16
22 21 20 20 19 17 18 18 15 13 8 11 10 11 14 15 18 21 23 23 22 21 19 15 18 12 11 10 11 12 15 20 21 19 20 19 18 17 17 16 16 16 17
25 24 23 23 23 21 19 19 18 15 12 10 10 10 11 12 11 17 20 25 26 25 24 25 26 20 20 20 13 13 13 17 22 19 20 19 21 20 20 20 19 18 18
27 27 27 26 26 23 21 21 21 18 14 12 10 10 12 12 13 11 14 20 25 28 27 29 33 28 28 26 23 20 19 18 19 25 24 23 21 19 19 22 23 22 20
26 26 27 25 25 24 21 22 22 22 19 16 15 15 14 14 13 11 10 17 23 21 27 30 32 32 32 32 33 33 27 26 26 24 25 25 27 26 24 22 25 25 24
27 26 26 26 26 26 22 23 24 23 23 22 20 21 19 19 15 13 12 12 13 16 25 24 23 22 22 19 22 25 32 27 31 28 29 28 27 33 32 30 27 28 25
31 29 28 29 29 29 27 26 26 27 26 26 25 24 22 22 22 20 18 18 19 18 16 15 25 20 18 20 15 16 20 23 25 28 28 29 28 27 28 32 29 29 29
33 34 33 31 32 31 31 29 30 30 29 29 27 26 26 25 26 24 22 21 23 22 21 17 15 18 18 18 21 15 16 17 21 24 25 25 26 29 28 30 31 29 29
35 36 35 34 33 34 35 30 31 31 31 32 31 30 30 29 28 28 26 25 25 25 26 27 25 24 26 24 23 23 20 20 18 18 22 24 27 30 32 32 30 31 32
38 37 38 38 37 37 36 33 33 33 33 34 35 34 33 33 32 32 31 30 30 29 29 30 30 31 30 27 26 26 24 24 24 24 24 25 16 30 29 33 32 29 31
39 39 41 40 40 39 37 37 36 36 36 36 36 37 37 36 35 35 35 34 34 33 33 33 32 32 32 32 31 31 31 28 27 28 28 26 28 21 16 15 18 20 21
42 42 41 42 42 42 41 40 40 39 39 39 38 38 39 39 38 38 38 37 37 37 37 36 36 36 35 35 34 32 30 30 29 31 30 31 31 28 27 23 22 18 16
45 45 44 44 44 44 44 43 42 42 42 41 41 40 40 41 41 41 41 41 40 40 39 39 39 39 39 38 36 35 34 33 32 33 31 32 32 32 32 32 32 27 27
48 47 45 45 45 45 45 45 44 44 44 43 43 43 42 42 42 42 43 43 43 43 42 42 41 41 41 40 39 39 38 38 38 37 37 36 35 33 32 33 35 35 34
47 47 47 47 46 47 47 47 46 45 45 45 45 45 45 45 45 45 45 44 45 45 45 45 44 43 44 44 45 45 44 43 42 42 41 41 40 38 38 36 37 36 36
48 49 49 49 48 48 48 48 49 49 48 48 47 48 48 48 48 48 48 48 47 47 48 48 48 48 48 48 48 48 48 48 47 46 46 45 44 44 43 42 41 42 41
50 49 50 50 50 49 49 49 49 51 51 51 51 51 52 52 51 50 50 50 51 51 51 51 51 52 51 51 51 50 50 50 50 50 49 50 49 48 47 47 46 46 45
49 50 51 51 51 52 52 54 55 56 57 57 56 56 55 54 53 53 53 53 54 54 54 53 52 52 53 53 53 53 53 53 52 52 51 51 52 52 51 52 52 51 49
46 49 51 52 53 54 56 56 57 58 58 58 57 57 57 57 57 57 57 56 56 56 56 56 55 55 55 54 54 54 54 54 54 54 54 54 54 55 56 55 55 55 55
47 48 49 50 52 53 55 57 58 60 61 61 61 61 62 62 62 61 60 59 58 57 57 58 59 59 58 58 58 57 57 57 56 57 57 58 57 57 57 57 57 56 56
50 52 53 54 55 57 58 59 61 62 62 63 63 64 64 63 64 64 64 63 62 60 61 61 62 62 61 62 61 60 60 59 58 59 59 59 58 58 58 57 56 56 55
53 54 54 55 55 56 58 60 62 64 66 67 68 68 68 68 68 68 67 66 66 64 62 62 60 59 61 61 61 62 62 62 62 61 61 62 61 60 60 59 59 59 59
58 58 56 56 57 57 58 58 60 63 65 67 69 70 70 69 68 68 67 68 69 68 68 66 65 64 62 62 63 63 63 63 65 65 65 64 64 63 63 61 61 61 61
Wind_Direction
263 267 272 285 291 278 288 300 306 287 266 260 251 241 246 241 228 259 260 234 214 218 229 227 232 237 227 205 202 200 203 205 198 195 202 196 194 195 206 208 212 205 210
262 268 275 286 289 290 293 301 309 292 265 254 258 243 238 229 238 243 255 240 251 241 242 239 253 252 234 242 219 198 200 206 210 210 201 202 201 200 204 213 216 219 212
259 265 269 276 283 287 293 297 310 304 258 234 241 243 229 233 225 237 236 232 236 249 249 251 259 250 250 237 239 211 211 210 211 217 210 205 205 206 209 209 215 216 217
253 257 262 270 275 282 284 286 294 288 248 235 242 232 227 230 231 232 228 231 228 229 237 228 246 198 200 203 236 231 220 215 219 221 221 216 213 211 214 213 215 215 216
251 255 258 266 269 272 275 278 275 281 264 248 252 244 239 240 242 240 233 229 231 232 231 226 223 207 214 233 241 226 227 220 216 223 226 229 220 218 215 221 219 219 218
255 253 255 258 265 264 264 268 270 272 275 254 255 248 242 249 253 248 244 235 234 230 225 229 227 224 228 232 228 228 231 222 215 217 227 226 226 231 228 225 225 222 220
253 255 254 256 260 259 258 257 261 265 265 267 261 246 243 240 238 237 246 247 239 231 228 226 223 227 227 234 233 226 225 227 226 226 233 230 226 219 222 227 228 227 223
252 250 253 252 252 253 252 254 255 258 257 252 255 255 249 245 246 248 251 238 240 239 239 239 239 236 234 241 243 240 239 239 239 236 237 239 233 233 236 231 228 230 228
255 251 249 250 251 251 247 249 251 250 252 248 244 248 252 252 249 250 239 233 236 244 240 236 233 231 233 235 238 241 238 240 239 240 243 238 239 235 240 239 230 227 229
256 255 250 247 250 252 250 247 249 251 248 247 244 243 244 249 253 257 255 244 245 242 230 244 226 223 239 242 242 250 239 235 235 240 237 237 236 235 234 233 230 224 228
251 252 252 249 249 251 251 249 248 250 250 250 249 248 245 245 247 251 251 248 244 242 235 234 237 242 248 260 245 253 239 236 230 230 236 233 232 234 233 229 226 224 229
250 250 250 249 248 250 251 251 252 254 253 252 249 248 248 245 247 248 247 248 248 250 246 242 240 249 249 246 249 246 252 253 255 260 247 220 217 227 225 223 224 229 231
249 248 246 246 246 246 249 251 252 253 252 251 252 250 249 249 247 247 248 248 246 246 251 251 245 243 249 249 245 239 247 250 246 251 258 262 243 216 223 218 211 210 218
250 248 246 246 245 246 246 248 248 250 251 251 250 252 252 250 250 249 248 248 249 249 246 247 250 250 249 250 249 245 238 249 251 250 247 252 270 268 246 254 240 222 231
251 249 246 246 245 244 244 245 246 248 250 251 251 251 252 253 252 252 251 248 247 246 246 247 249 250 251 252 251 251 250 246 248 248 249 249 248 250 247 251 260 260 248
253 252 248 247 246 244 245 245 246 248 249 251 251 251 250 250 250 252 252 252 251 250 249 247 246 246 247 247 248 249 252 253 249 249 248 248 249 246 243 242 244 247 252
255 255 254 252 249 248 248 248 248 248 249 250 251 251 252 253 253 252 252 254 255 254 252 250 248 246 247 249 251 251 249 251 251 249 249 248 247 248 246 246 245 249 244
254 254 252 251 249 249 249 249 249 249 250 249 250 251 251 251 252 252 253 252 252 252 252 252 251 250 249 249 250 251 253 252 250 251 248 249 249 248 247 245 246 243 247
255 255 253 251 249 250 249 249 249 249 249 249 248 248 249 250 251 251 251 252 252 251 251 252 252 254 254 254 252 252 251 252 253 252 251 249 247 249 250 248 246 247 245
256 256 256 256 255 253 252 251 252 252 251 250 250 249 248 248 249 250 251 252 251 251 250 250 251 252 252 252 252 251 251 250 250 250 251 251 250 247 249 250 248 247 247
254 254 254 254 254 252 253 255 255 253 249 249 248 249 249 249 248 249 250 251 253 253 252 252 252 252 252 253 253 253 253 252 251 250 250 250 251 251 249 249 251 251 249
255 254 253 253 254 253 254 254 253 254 254 254 254 254 254 253 251 251 251 251 252 253 255 254 252 253 254 254 254 254 254 254 254 254 252 250 250 250 251 249 248 249 250
258 258 257 256 256 255 255 255 255 255 254 253 253 254 254 254 254 255 255 256 256 255 256 255 255 254 255 255 255 254 253 253 254 253 253 252 250 250 251 251 251 249 248
259 260 260 259 258 258 257 256 256 255 255 256 256 256 256 256 256 256 255 254 255 257 260 258 257 255 256 256 256 256 255 254 254 254 254 253 253 252 251 251 252 253 253
262 262 261 259 256 256 256 256 256 256 256 256 256 256 256 256 256 255 255 254 254 258 259 260 258 259 258 256 255 255 255 254 254 253 252 252 252 252 252 252 252 253 254
264 262 261 258 255 253 253 254 255 256 256 256 256 256 257 257 257 257 256 256 256 258 259 259 256 256 257 258 257 258 254 255 255 253 252 251 251 250 251 252 252 252 253
Height
5806 5806 5806 5807 5807 5807 5807 5807 5807 5806 5806 5807 5808 5811 5812 5813 5814 5816 5819 5821 5823 5825 5826 5828 5826 5827 5829 5832 5835 5838 5841 5844 5846 5847 5849 5850 5852 5853 5855 5857 5858 5860 5862
5804 5804 5804 5804 5805 5805 5804 5804 5803 5803 5802 5803 5805 5807 5810 5811 5812 5814 5816 5820 5821 5822 5823 5823 5824 5826 5826 5829 5830 5834 5838 5841 5844 5846 5848 5849 5851 5852 5854 5856 5858 5860 5861
5801 5802 5802 5802 5803 5802 5802 5801 5801 5800 5800 5800 5801 5804 5807 5809 5810 5813 5815 5817 5819 5820 5822 5823 5824 5825 5825 5828 5830 5833 5837 5839 5842 5845 5846 5848 5849 5851 5853 5854 5856 5858 5860
5798 5798 5799 5799 5800 5801 5800 5799 5799 5798 5798 5800 5800 5801 5803 5805 5807 5809 5811 5814 5816 5818 5819 5821 5822 5824 5824 5827 5829 5831 5834 5837 5840 5843 5845 5846 5848 5849 5851 5853 5854 5856 5858
5794 5795 5796 5795 5797 5798 5797 5797 5796 5797 5797 5799 5799 5799 5801 5802 5803 5805 5808 5811 5813 5815 5818 5819 5821 5822 5824 5826 5828 5829 5831 5834 5837 5840 5842 5844 5846 5848 5849 5851 5853 5855 5857
5791 5791 5792 5792 5792 5794 5795 5794 5794 5795 5796 5797 5798 5799 5800 5801 5803 5804 5804 5807 5810 5812 5815 5816 5818 5820 5823 5825 5826 5827 5829 5831 5834 5837 5839 5841 5843 5845 5847 5848 5851 5852 5854
5786 5786 5787 5788 5788 5790 5791 5791 5791 5793 5794 5795 5796 5797 5799 5799 5801 5802 5803 5803 5807 5811 5812 5814 5815 5817 5820 5822 5823 5825 5826 5828 5831 5834 5837 5839 5841 5843 5844 5846 5847 5850 5851
5780 5781 5782 5783 5783 5785 5787 5788 5788 5790 5791 5792 5794 5795 5796 5797 5799 5800 5802 5802 5804 5805 5808 5810 5811 5814 5815 5817 5820 5822 5822 5824 5828 5830 5833 5836 5838 5840 5842 5843 5844 5847 5849
5774 5776 5777 5778 5779 5780 5782 5783 5784 5786 5787 5787 5791 5792 5793 5795 5796 5797 5798 5799 5801 5803 5805 5805 5807 5809 5812 5814 5816 5817 5819 5820 5824 5826 5828 5830 5833 5835 5837 5839 5840 5843 5845
5769 5771 5772 5774 5774 5774 5776 5777 5779 5780 5781 5783 5784 5786 5789 5791 5793 5794 5795 5796 5798 5801 5802 5802 5805 5806 5808 5811 5812 5813 5815 5816 5820 5822 5823 5825 5828 5831 5832 5834 5837 5838 5841
5763 5764 5765 5767 5768 5769 5770 5772 5773 5773 5776 5777 5780 5782 5783 5786 5788 5789 5791 5793 5794 5795 5797 5799 5802 5802 5806 5808 5809 5812 5813 5813 5816 5817 5818 5821 5823 5826 5828 5830 5832 5834 5837
5755 5757 5759 5761 5763 5763 5763 5766 5767 5768 5770 5772 5773 5776 5778 5780 5781 5784 5786 5789 5790 5792 5793 5795 5797 5798 5801 5804 5807 5809 5809 5810 5812 5814 5815 5816 5818 5822 5823 5826 5828 5830 5833
5747 5749 5750 5752 5755 5756 5758 5760 5761 5762 5764 5765 5767 5769 5771 5773 5775 5777 5779 5782 5784 5786 5788 5790 5792 5794 5795 5797 5801 5804 5804 5807 5808 5811 5812 5811 5812 5816 5819 5821 5822 5824 5827
5738 5740 5742 5744 5745 5748 5750 5751 5753 5754 5756 5758 5760 5762 5763 5765 5768 5770 5772 5774 5777 5779 5781 5783 5785 5788 5790 5791 5794 5797 5799 5800 5803 5806 5808 5809 5810 5814 5817 5818 5818 5820 5823
5728 5730 5733 5735 5736 5739 5740 5743 5745 5747 5749 5751 5753 5755 5756 5758 5759 5762 5764 5766 5769 5772 5774 5776 5778 5780 5783 5786 5788 5789 5791 5795 5796 5800 5801 5804 5806 5810 5813 5814 5815 5818 5820
5718 5720 5723 5725 5727 5729 5732 5734 5736 5738 5741 5743 5745 5747 5749 5750 5752 5754 5756 5758 5760 5763 5765 5768 5770 5773 5776 5778 5780 5783 5785 5787 5791 5794 5796 5799 5801 5803 5806 5808 5811 5813 5817
5708 5710 5713 5716 5718 5720 5723 5725 5728 5730 5732 5734 5736 5738 5740 5742 5744 5746 5748 5750 5752 5754 5756 5759 5762 5765 5767 5769 5771 5774 5778 5781 5784 5788 5790 5792 5794 5796 5799 5801 5805 5808 5811
5697 5699 5701 5704 5707 5710 5712 5715 5718 5720 5723 5725 5727 5730 5732 5733 5735 5737 5739 5741 5744 5746 5748 5750 5753 5756 5759 5762 5764 5767 5769 5773 5776 5779 5783 5785 5786 5788 5792 5795 5797 5801 5804
5687 5689 5691 5693 5695 5698 5701 5703 5706 5709 5711 5714 5717 5719 5721 5723 5725 5727 5730 5732 5734 5737 5740 5742 5745 5747 5749 5752 5755 5758 5761 5764 5766 5770 5773 5776 5778 5779 5781 5786 5789 5793 5797
5676 5679 5680 5683 5685 5688 5690 5693 5695 5698 5700 5702 5705 5707 5709 5711 5713 5716 5719 5722 5724 5727 5729 5731 5734 5736 5739 5742 5745 5747 5750 5753 5756 5759 5762 5765 5768 5771 5773 5775 5780 5784 5786
5664 5667 5669 5671 5673 5676 5678 5681 5683 5685 5686 5689 5692 5694 5696 5699 5702 5704 5706 5709 5713 5716 5718 5721 5723 5726 5728 5730 5733 5736 5739 5741 5744 5747 5750 5753 5756 5759 5763 5766 5768 5772 5775
5653 5655 5657 5659 5661 5663 5665 5667 5669 5672 5674 5677 5680 5682 5684 5687 5689 5692 5694 5697 5699 5703 5707 5709 5711 5714 5716 5719 5722 5724 5727 5730 5732 5734 5737 5740 5743 5747 5751 5754 5757 5760 5763
5640 5642 5644 5646 5648 5650 5652 5654 5656 5658 5660 5662 5665 5667 5670 5672 5676 5679 5682 5685 5688 5690 5693 5696 5699 5702 5704 5706 5709 5712 5714 5717 5720 5722 5725 5728 5731 5734 5737 5741 5745 5748 5750
5627 5628 5630 5632 5634 5636 5638 5640 5642 5644 5646 5649 5651 5653 5656 5659 5662 5664 5667 5670 5673 5676 5679 5681 5684 5687 5691 5693 5695 5697 5700 5703 5706 5709 5711 5714 5717 5721 5724 5727 5731 5734 5737
5613 5615 5616 5618 5618 5620 5623 5624 5626 5629 5631 5633 5636 5638 5640 5642 5645 5648 5651 5654 5658 5660 5663 5666 5668 5671 5674 5678 5681 5684 5686 5688 5692 5695 5698 5701 5702 5706 5710 5714 5717 5720 5724
5597 5598 5600 5603 5603 5605 5605 5608 5610 5612 5614 5616 5619 5621 5624 5627 5630 5633 5636 5639 5642 5644 5647 5649 5651 5654 5657 5661 5664 5668 5670 5673 5676 5679 5682 5686 5688 5692 5694 5698 5702 5705 5709